sat.trackr.live / text

‹ back to catalog

STARLINK-4285

NORAD 52991 · 2022-076F

PAYLOAD ACTIVE UNKNOWN

§ Identity

Operator
Country
US
Launch date
2022-07-07
Launch site
AFETR
Launch vehicle
Mass (kg)
RCS (m²)

Purposes: comms

External: N2YO · Heavens-Above · Gunter

§ Orbital elements

Epoch: 2026-09-19T19:44:08.384064Z

Period
93.85 min
Inclination
53.1585°
Eccentricity
0.0001363
Mean motion
15.34384369 rev/d
Perigee alt
461.8 km
Apogee alt
463.7 km
Semi-major
6,840.9 km
B*
1.3149e-6
RAAN
297.2339°
Arg perigee
85.4756°
Mean anomaly
274.6403°
Rev number
23,222

§ Raw data

STARLINK-42851 52991U 22076F   26262.82231926 -.00000332  00000+0  13149-5 0  99952 52991  53.1585 297.2339 0001363  85.4756 274.6403 15.34384369232221

JSON: /api/v1/satellites/52991 · /tle

For live sub-satellite position, see the globe view (requires WebGL).

§ Visibility from observer

Set your observer location to see the next 7 days of passes ≥ 10°. The values pass through the URL so the page stays shareable.

No JS? Fill the form by hand. The geolocation button needs JavaScript.